Flag for U.S.A. Weather past 2 weeks in Orlando, Florida, U.S.A.

Now
73 °F

Overcast.


Feels Like: 76 °F
Forecast: 63 / 78 °F
Wind: 8 mph from Northeast

Location: Orlando Executive Airport

Current Time: Oct 24, 2014 at 9:05:16 PM

Latest Report: Oct 24, 2014 at 7:53 PM


Visibility: 10 mi

Pressure: 29.94 "Hg

Humidity: 62%

Dew point: 59 °F

Location of OrlandoLocation

Historic Weather in Orlando — Graph

°F

Orlando temperature yesterday

Maximum temperature yesterday: 80 °F (at 12:53 PM)
Minimum temperature yesterday: 64 °F (at 6:53 AM)
Average temperature yesterday: 72 °F

Past Weeks' High & Low Weather Summary

 TemperatureHumidityPressure
High90 °F (Oct 11, 2:53 PM)100% (Oct 22, 5:53 AM)30.13 "Hg (Oct 22, 5:53 AM)
Low62 °F (Oct 17, 7:53 AM)37% (Oct 22, 2:53 PM)29.89 "Hg (Oct 16, 4:53 PM)
Average76 °F70%30.00 "Hg
* Reported Oct 9 7:53 PM — Oct 24 7:53 PM, Orlando, Weather by CustomWeather, © 2014

Note: Actual official high and low records may vary slightly from our data, if they occured in-between our weather recording intervals... More about our weather records

Advertising

Orlando weather history for previous 24 hours

 ConditionsComfort  
Time TempWeatherWind HumidityBarometerVisibility
7:53 PM
Oct 24
73 °FOvercast.8 mph62%29.94 "Hg10 mi
6:53 PM73 °FScattered clouds.6 mph59%29.93 "Hg10 mi
5:53 PM76 °FScattered clouds.9 mph52%29.92 "Hg10 mi
4:53 PM76 °FScattered clouds.9 mph50%29.93 "Hg10 mi
3:53 PM77 °FPartly sunny.13 mph50%29.94 "Hg10 mi
2:53 PM79 °FPartly sunny.9 mph48%29.95 "Hg10 mi
1:53 PM78 °FPartly sunny.9 mph52%29.96 "Hg10 mi
12:53 PM77 °FOvercast.13 mph56%29.99 "Hg10 mi
11:53 AM76 °FScattered clouds.6 mph60%30.00 "Hg10 mi
10:53 AM75 °FPassing clouds.10 mph60%30.01 "Hg10 mi
9:53 AM70 °FPassing clouds.8 mph66%30.02 "Hg10 mi
8:53 AM68 °FSunny.12 mph68%30.00 "Hg10 mi
7:53 AM65 °FClear.7 mph73%29.98 "Hg10 mi
6:53 AM64 °FClear.7 mph75%29.97 "Hg10 mi
5:53 AM64 °FClear.6 mph75%29.97 "Hg10 mi
4:53 AM64 °FClear.7 mph73%29.96 "Hg10 mi
3:53 AM64 °FClear.7 mph75%29.97 "Hg10 mi
2:53 AM65 °FPassing clouds.7 mph73%29.98 "Hg10 mi
1:53 AM65 °FClear.7 mph73%30.00 "Hg10 mi
12:53 AM66 °FClear.7 mph70%30.01 "Hg10 mi
11:53 PM
Oct 23
68 °FPassing clouds.6 mph65%30.02 "Hg10 mi
10:53 PM69 °FPassing clouds.7 mph66%30.03 "Hg10 mi
9:53 PM69 °FClear.6 mph70%30.01 "Hg10 mi
Weather by CustomWeather, © 2014

See weather overviewHow to use our weather pages